Theta_e
288 288 288 287 287 287 287 287 287 287 287 287 287 287 287 287 287 287 287 288 288 288 289 289 289 289 289 289 289 289 289 289 289 289 289 289 289 289 289 289 289 289
288 288 288 288 287 287 287 287 287 287 287 286 286 286 286 287 287 287 287 287 287 288 288 288 288 289 289 289 289 289 289 289 289 289 289 289 289 289 289 289 289 289
289 289 288 288 288 288 287 287 287 287 287 287 287 287 286 286 286 286 287 287 287 287 287 288 288 288 288 288 288 288 288 288 288 288 288 288 288 288 288 288 288 288
291 290 289 288 288 288 288 288 287 287 287 287 287 287 287 286 286 286 286 286 286 287 287 287 287 288 288 288 288 288 288 288 288 288 288 288 288 288 288 288 288 288
292 291 290 289 289 288 288 288 288 288 287 287 287 287 287 286 286 286 286 286 286 286 287 287 287 287 288 288 288 288 288 288 288 288 287 287 287 287 287 287 287 287
293 293 292 291 290 289 288 288 288 288 287 287 287 287 286 286 286 286 286 286 286 286 286 286 287 287 287 287 288 288 288 288 288 288 288 287 287 287 287 287 287 287
294 294 293 292 291 290 289 289 289 288 288 288 287 287 286 286 286 286 286 286 286 286 286 286 286 286 287 287 287 287 288 288 288 288 288 287 287 287 287 287 287 287
295 294 294 293 293 292 291 291 290 289 289 288 287 287 287 287 286 286 286 286 286 286 286 286 286 286 286 286 286 287 287 287 288 288 288 287 287 287 287 287 287 287
296 295 295 294 294 293 293 293 292 291 290 289 288 288 287 287 287 286 286 286 285 285 285 285 285 285 286 286 286 286 286 286 287 287 287 287 287 287 287 287 287 287
296 296 296 295 295 294 294 294 293 293 292 291 290 289 289 288 287 287 286 286 286 285 285 285 285 285 285 285 285 286 286 286 286 286 287 287 287 287 287 287 287 287
296 296 296 296 296 295 295 295 294 293 293 293 292 291 290 290 289 288 287 287 286 286 286 286 286 285 285 285 285 285 285 285 285 286 286 286 286 286 286 287 287 287
296 296 296 296 296 296 296 295 295 294 294 293 293 292 292 291 291 290 289 288 288 287 287 287 286 286 286 286 285 285 285 285 285 285 285 285 285 285 285 286 286 286
297 297 297 296 296 296 296 295 295 295 294 294 293 293 293 292 292 292 291 290 290 289 288 288 287 287 286 286 286 286 286 285 285 285 285 285 285 285 285 285 285 285
297 297 297 297 296 296 296 296 295 295 295 294 294 293 293 293 293 292 292 292 291 291 290 289 288 288 288 287 287 286 286 286 286 285 285 285 285 285 285 285 285 285
298 297 297 297 297 296 296 296 295 295 295 295 294 294 294 293 293 293 292 292 292 292 291 291 290 290 290 289 288 288 287 287 286 286 286 286 286 286 285 286 286 286
298 297 297 297 297 297 297 296 296 295 295 295 295 294 294 294 293 293 292 292 292 292 292 291 291 292 292 291 290 289 288 287 287 287 287 286 286 286 286 286 286 286
298 298 297 297 297 296 297 296 296 296 295 295 295 295 295 294 294 293 293 293 293 292 292 292 292 292 292 292 291 290 289 288 287 287 287 287 287 286 287 287 287 287
297 297 297 297 297 297 296 296 296 296 295 295 295 295 295 294 294 294 294 293 293 293 293 293 293 293 293 292 292 291 290 289 288 287 287 287 287 287 287 287 287 287
296 296 297 297 297 297 297 296 296 296 296 296 295 295 295 294 294 294 294 294 293 293 293 293 294 294 294 293 292 292 291 289 288 287 287 287 287 287 288 288 287 287
296 296 296 296 297 297 297 296 296 295 295 296 295 295 295 294 294 294 294 294 294 294 294 294 294 294 294 294 293 292 291 289 288 288 287 288 288 288 288 288 288 287
297 296 296 296 296 297 297 296 296 295 296 296 295 295 295 295 295 294 294 294 294 294 294 294 295 295 294 294 293 292 291 289 288 288 287 288 288 288 288 288 288 287
297 297 296 296 296 296 296 296 296 296 296 296 295 295 295 295 294 294 294 294 294 294 293 294 295 295 294 294 293 292 291 289 287 287 287 288 289 289 289 288 288 288
297 296 296 296 295 294 294 295 295 296 296 296 295 294 294 295 295 295 294 294 294 294 293 294 295 295 294 294 294 292 290 289 288 287 287 288 289 289 289 288 288 288
296 295 295 295 294 294 294 295 295 295 295 295 294 293 294 295 295 294 294 294 293 293 293 293 294 295 294 293 293 292 290 289 288 288 288 288 288 289 288 288 289 289
295 294 294 294 294 294 294 295 295 294 294 294 293 293 293 294 294 293 293 293 294 294 293 293 293 294 294 293 293 292 291 289 288 287 288 288 288 288 288 288 289 289
294 294 294 293 294 294 294 294 294 293 293 292 292 292 292 293 293 293 292 293 293 293 293 293 293 294 294 294 293 292 291 289 288 287 288 288 287 288 288 288 288 288
Wind_Speed
2 2 2 2 2 2 3 3 3 3 2 2 2 2 3 4 5 5 6 6 7 7 8 8 8 8 8 7 7 8 8 9 9 10 9 10 11 11 11 12 12 13
4 4 3 3 3 2 2 2 2 2 2 2 1 1 1 2 2 3 4 4 5 5 6 6 6 7 7 7 6 7 7 8 8 8 8 9 9 10 10 11 11 12
8 7 6 5 5 4 4 4 4 3 3 3 2 3 3 2 2 1 1 2 2 2 3 4 4 5 5 5 6 6 7 8 8 8 8 9 9 10 10 10 10 11
10 9 9 8 8 7 7 6 6 6 6 5 4 4 4 4 4 3 3 2 2 1 1 1 1 2 2 3 3 4 4 5 6 7 8 8 9 9 10 10 10 11
13 12 12 11 11 10 10 9 9 9 9 8 8 7 7 6 6 6 5 5 4 4 3 3 2 2 1 1 1 2 2 3 4 5 6 7 7 8 9 9 10 10
14 14 14 14 13 13 13 13 12 11 11 11 10 10 10 10 9 8 8 8 7 7 6 6 5 5 5 4 4 4 4 5 5 5 6 6 7 7 8 8 8 8
12 13 15 16 16 16 16 16 15 15 14 14 13 13 13 13 12 12 11 11 10 10 9 9 9 8 8 8 8 8 8 8 8 8 8 8 9 9 9 9 9 9
10 11 13 16 17 18 19 19 19 18 17 17 17 16 16 16 15 15 15 14 14 14 13 13 13 12 12 11 12 12 12 12 11 11 11 11 12 12 13 13 12 12
12 12 12 14 16 18 20 20 21 20 20 19 20 19 19 19 18 18 18 18 18 18 17 17 16 16 15 15 15 15 15 15 15 15 15 15 16 16 16 16 16 16
15 14 14 14 15 17 18 18 20 20 21 21 22 22 22 21 21 20 21 21 21 21 21 21 20 20 19 19 19 18 18 18 18 18 18 18 19 19 19 19 19 20
18 18 17 17 17 17 17 17 17 19 20 21 22 23 23 23 23 23 23 24 25 25 24 24 24 23 23 22 22 22 22 21 21 22 22 22 22 22 22 23 23 24
20 20 20 19 19 18 17 17 16 17 18 19 20 22 23 24 24 25 26 26 27 27 27 27 27 26 26 26 26 25 25 25 25 25 25 25 26 26 26 26 26 27
21 21 21 21 21 20 19 18 17 17 18 18 19 20 21 23 24 25 26 26 27 28 28 29 29 29 29 29 29 29 29 29 29 29 29 29 29 29 29 29 30 30
23 22 22 22 22 21 21 20 19 19 19 19 19 20 21 22 23 24 25 26 26 27 28 29 30 30 31 31 32 31 31 32 32 32 32 32 32 33 32 33 33 33
23 24 24 23 23 23 23 22 22 21 21 21 21 21 21 22 22 23 24 25 26 27 28 29 30 31 31 32 33 32 32 33 33 33 34 34 35 35 35 35 35 36
23 23 24 25 25 25 24 24 24 23 23 23 22 23 23 23 23 23 24 25 25 26 28 29 30 31 30 31 31 32 32 32 33 34 34 35 35 36 36 37 37 37
25 24 24 25 26 27 26 25 25 25 25 25 24 24 24 24 24 25 25 25 26 27 28 29 30 29 28 29 30 30 30 31 32 34 34 35 35 36 37 37 37 37
29 27 26 26 27 28 28 28 27 27 27 27 27 26 26 26 26 26 27 27 27 27 28 29 30 28 27 27 28 29 29 29 30 32 33 34 35 36 37 37 37 37
31 31 30 29 29 29 30 30 30 29 29 29 29 28 28 28 27 27 28 28 28 28 29 30 31 29 27 26 27 28 27 27 28 30 32 33 35 35 36 36 36 36
31 33 34 33 32 31 31 31 32 32 31 30 29 29 30 30 29 29 29 29 29 29 29 31 31 30 27 26 26 27 26 26 28 29 31 33 34 35 35 36 36 35
30 32 34 35 35 33 32 33 33 32 32 32 31 30 31 31 30 30 30 30 30 30 30 31 31 30 28 27 27 26 26 25 27 28 31 33 34 35 35 36 36 35
31 31 33 35 35 34 34 34 34 33 33 32 31 31 31 31 31 31 31 30 30 29 30 31 31 29 28 27 26 26 25 25 26 28 30 32 34 35 35 35 35 34
32 31 31 33 34 34 34 35 35 34 33 32 31 31 31 31 31 31 30 30 29 29 30 30 29 28 27 26 25 25 24 24 26 28 29 32 34 34 34 34 34 34
33 31 30 31 31 33 34 35 35 35 34 31 30 29 30 30 30 30 30 29 29 29 28 29 29 27 25 25 24 24 24 25 26 26 28 32 33 33 33 34 34 34
34 32 30 30 30 31 33 34 35 35 33 31 29 28 29 30 29 30 30 29 29 28 27 28 29 27 25 25 25 25 25 26 26 26 27 31 32 32 32 33 34 34
34 33 31 30 30 31 32 33 33 34 32 29 28 28 29 29 29 29 30 30 29 29 28 29 30 28 26 25 25 26 26 26 26 26 28 31 31 30 31 32 32 33
Wind_Direction
289 306 317 328 329 334 355 7 9 16 26 38 56 71 76 82 84 84 83 84 88 90 91 93 94 95 96 96 100 104 107 110 111 113 115 116 117 118 119 121 122 121
267 267 266 272 275 274 283 294 311 325 323 330 336 336 4 43 62 73 78 80 86 93 98 102 105 108 110 112 117 119 122 125 123 124 127 126 126 126 126 126 127 126
265 265 264 262 262 260 258 260 262 264 271 279 286 291 298 308 327 351 25 46 59 73 84 94 100 104 109 117 123 129 135 137 137 140 142 141 142 143 142 141 140 138
262 262 262 261 259 259 257 255 255 255 255 258 260 263 270 277 281 284 288 293 296 310 349 34 69 76 92 111 123 136 142 145 147 148 151 155 156 157 157 155 155 152
258 258 258 258 258 257 256 255 254 254 253 251 250 251 254 258 259 263 265 266 267 271 275 278 281 285 272 247 220 194 182 185 179 168 170 174 173 175 174 170 169 168
258 257 257 256 256 256 256 256 254 253 253 252 252 251 250 249 249 251 252 254 255 256 258 260 261 261 261 259 254 245 234 233 229 217 206 205 205 202 197 193 191 191
267 261 258 256 256 255 255 256 255 253 252 252 252 251 250 249 249 249 250 250 250 250 249 249 249 249 250 250 250 250 247 244 243 238 230 225 227 228 226 222 216 216
277 269 263 259 257 256 256 257 257 255 254 253 251 251 251 251 250 250 251 250 250 250 249 247 246 244 244 243 243 245 246 247 246 243 239 235 235 236 237 236 232 231
278 276 272 267 263 262 261 261 260 258 256 255 254 253 253 252 252 252 252 251 251 251 251 250 248 246 244 243 243 243 244 245 245 244 243 241 240 240 240 240 239 239
276 276 276 274 272 271 271 269 266 263 259 257 256 255 255 254 254 254 253 253 252 251 252 252 251 250 248 248 247 246 246 247 247 246 246 244 244 244 243 243 244 244
274 274 273 274 275 276 278 277 273 269 264 261 258 257 256 256 256 255 253 253 254 254 254 255 256 255 253 253 252 252 251 251 250 250 250 249 249 248 247 247 247 248
273 272 272 273 274 275 276 277 275 273 270 266 262 259 258 257 256 256 255 254 255 257 257 257 258 258 257 257 257 256 255 254 253 253 254 254 254 253 253 252 252 252
274 274 274 273 273 273 273 272 271 271 271 270 267 263 261 259 257 256 256 256 257 258 258 258 258 258 259 259 258 258 257 256 255 255 256 257 257 257 257 257 257 257
276 276 275 274 273 272 271 270 269 268 267 269 268 266 264 263 261 260 259 259 258 258 258 258 258 258 258 258 258 257 257 257 257 257 257 258 259 260 260 260 260 260
279 276 274 274 273 272 271 271 270 268 266 265 265 266 267 266 265 263 261 261 260 259 258 258 257 257 257 257 257 257 257 258 258 258 258 259 259 260 261 261 261 262
280 277 274 272 272 272 273 272 272 270 268 266 264 264 265 266 266 264 262 262 262 261 261 260 259 259 260 260 258 257 257 258 259 259 259 259 259 260 261 262 262 263
278 279 277 273 271 271 271 272 273 272 270 268 266 264 264 264 264 264 264 263 262 262 262 262 262 264 265 265 263 260 257 256 258 260 260 260 259 259 260 261 262 263
276 278 278 277 275 273 271 271 271 270 270 269 268 267 265 264 263 264 264 264 263 263 262 262 264 266 267 267 267 265 261 258 257 259 260 261 260 260 261 261 261 262
278 277 278 278 278 276 274 271 268 268 268 269 269 270 267 264 264 264 265 265 264 264 264 266 267 268 268 268 267 267 264 260 257 257 258 261 261 261 262 262 261 261
281 278 277 278 280 279 276 271 268 267 267 268 269 268 267 265 265 264 265 266 265 266 267 268 270 271 270 269 268 267 264 260 257 256 257 260 262 262 262 263 262 260
282 279 278 279 280 279 276 273 269 268 268 268 267 266 266 266 266 265 265 266 267 267 267 268 270 272 272 271 269 268 265 260 256 255 256 259 262 263 263 263 263 261
283 280 279 279 279 278 276 274 271 270 270 269 267 266 266 265 265 265 264 265 267 267 266 268 271 272 272 272 272 269 265 259 254 253 254 257 260 263 263 263 263 262
284 281 279 279 279 277 275 275 274 272 271 270 267 265 265 266 266 266 266 265 265 265 265 267 271 273 272 272 271 268 262 256 253 251 252 255 259 262 262 262 263 263
286 282 279 278 277 276 276 276 276 274 273 271 267 264 265 267 269 268 267 265 264 264 265 267 270 273 272 270 269 267 260 255 251 249 250 254 257 259 261 261 262 263
287 284 281 278 277 276 277 278 278 277 275 273 269 265 265 267 268 267 266 265 265 266 266 267 269 272 271 269 268 266 260 254 250 246 247 252 255 256 258 260 262 264
289 286 283 280 278 278 279 280 280 279 276 273 270 266 265 265 266 264 263 264 265 266 266 266 267 269 270 269 267 264 260 254 248 244 246 250 252 254 255 258 260 262